Wetbulb
69.35 71.50 71.96 72.54 72.60 72.32 72.12 72.15 71.99 72.12 72.76 73.19 73.20 72.90 72.51 72.35 72.08 71.82 71.72 71.43 71.41 72.01 71.52 70.99 71.12 70.58 70.46 70.38 70.28 70.49 70.44 70.03 69.82 70.46 70.53 70.41 70.13 69.62 69.11 69.22 68.99 67.61 69.37
69.96 71.93 71.58 72.19 72.27 72.37 72.30 72.35 72.20 72.28 72.94 73.32 73.02 72.46 72.15 71.85 71.69 71.53 71.23 71.22 71.34 71.86 70.93 70.75 70.06 70.06 69.70 69.33 69.41 69.14 69.05 68.78 68.81 68.97 69.44 69.69 69.45 68.82 68.60 68.22 68.55 67.62 68.47
69.70 71.95 72.39 71.60 72.14 72.42 72.65 72.71 72.61 72.79 73.19 73.13 72.93 72.49 72.16 71.83 71.45 71.33 71.14 71.00 71.10 71.26 70.29 70.16 69.77 69.60 68.87 68.96 68.53 68.44 68.60 68.52 67.82 67.61 67.49 64.61 65.20 67.51 67.56 67.50 67.89 67.44 67.44
70.11 70.98 71.94 71.64 71.86 72.26 72.34 72.54 72.49 72.78 73.02 72.83 72.70 72.37 72.19 71.86 71.54 71.51 70.97 70.43 70.56 70.65 69.37 69.28 69.25 68.72 68.48 68.46 68.19 67.83 68.04 68.59 67.49 66.86 64.27 64.14 64.52 66.78 66.90 66.68 66.28 66.20 65.92
69.24 69.90 71.00 71.06 71.31 72.02 72.20 72.34 72.38 72.32 72.36 72.13 72.23 72.43 71.85 71.58 71.74 71.55 70.47 70.03 70.19 70.38 68.87 68.81 68.43 68.26 68.39 67.89 68.17 68.32 68.39 67.39 66.83 64.93 62.58 62.54 63.10 64.66 65.28 65.03 64.38 64.79 64.74
67.26 70.02 69.54 69.51 71.01 71.64 72.11 72.19 72.18 72.17 71.79 71.47 71.23 71.51 71.38 71.21 70.84 70.30 70.02 69.81 69.80 69.87 69.07 68.11 67.75 68.00 67.08 66.53 66.23 65.93 65.22 64.66 64.52 61.99 61.94 63.77 62.19 64.74 64.57 64.24 64.07 64.87 64.39
66.35 68.29 68.90 68.81 70.02 71.79 72.19 72.10 71.51 71.52 71.18 71.14 69.83 69.70 68.62 69.52 69.61 68.80 68.85 69.71 69.08 68.99 68.75 67.86 67.47 66.91 66.05 65.48 65.15 63.87 63.09 63.25 61.12 60.53 60.68 60.28 61.81 63.92 64.20 63.70 63.08 62.58 62.28
66.15 68.35 67.51 68.96 69.51 70.38 71.52 71.44 70.74 70.53 70.42 69.67 69.29 68.65 68.39 67.91 68.04 68.46 68.39 68.71 68.48 68.01 67.60 67.13 66.84 66.01 65.45 64.86 63.63 62.66 62.49 62.98 60.91 59.54 59.24 59.38 63.41 63.48 63.63 62.82 62.15 62.01 61.97
66.11 66.96 66.89 65.69 66.27 68.29 68.42 67.78 69.06 69.34 68.90 68.60 67.44 68.14 68.01 67.10 67.50 68.38 68.46 68.21 67.61 67.16 66.80 66.55 66.10 65.18 64.61 63.63 62.68 61.35 62.65 62.13 59.01 59.33 59.82 58.73 63.78 63.13 62.98 62.65 62.11 61.52 61.61
64.74 64.62 64.95 64.42 63.94 62.75 63.30 64.75 65.52 67.11 66.55 67.28 67.25 66.95 66.61 66.84 67.38 67.48 67.53 67.23 66.86 66.56 66.44 66.04 65.17 64.36 63.69 62.53 61.46 61.75 62.18 61.42 58.69 58.51 58.19 60.11 63.43 63.03 62.84 62.14 61.69 61.33 60.98
63.92 63.72 64.09 63.17 62.22 62.52 62.47 63.22 64.06 65.11 65.41 65.64 64.29 63.25 65.06 66.07 66.80 66.83 66.37 66.29 66.44 66.00 65.47 65.18 64.32 63.12 62.24 61.66 61.23 61.50 60.60 58.50 58.41 58.54 58.24 62.83 62.84 62.79 62.44 61.59 60.86 60.81 60.67
62.05 62.69 63.61 63.14 62.67 62.47 63.26 62.09 61.93 62.97 63.07 63.07 63.51 60.80 65.08 65.75 65.84 65.73 65.72 65.64 65.61 65.08 64.62 64.11 63.30 62.47 60.67 57.21 56.95 59.42 58.22 58.18 58.05 58.03 58.97 62.76 62.56 62.51 61.90 61.14 60.60 60.30 60.11
63.61 63.12 63.66 63.54 62.83 62.32 61.55 60.85 62.00 61.79 62.11 60.83 61.16 61.07 64.71 66.18 65.73 65.24 64.31 63.96 63.34 63.61 61.73 60.99 60.15 57.44 56.37 55.80 56.12 56.26 57.89 58.04 57.83 58.55 60.51 62.45 62.53 62.18 61.62 60.89 60.53 60.27 59.60
63.48 62.67 62.67 62.62 61.18 60.51 61.39 61.03 61.77 60.86 60.46 60.96 60.37 63.53 63.89 65.02 64.83 64.07 62.95 61.93 61.23 60.12 58.98 57.11 55.63 56.05 55.12 56.32 56.98 57.66 58.31 57.65 57.65 58.29 59.85 61.49 62.01 61.81 61.57 61.19 60.53 59.90 59.33
61.97 62.34 62.06 62.28 61.75 61.17 61.85 61.31 62.78 62.20 61.78 62.21 61.17 64.33 65.00 64.56 64.39 63.43 61.36 60.48 59.24 58.95 57.71 55.50 55.31 56.08 54.85 55.64 56.69 57.50 57.79 57.35 57.46 58.29 58.22 60.52 61.18 61.61 61.34 61.17 60.56 59.97 59.27
61.11 61.34 62.04 62.66 62.80 62.67 62.29 61.85 62.72 61.41 61.17 62.68 61.27 64.55 65.02 64.58 64.49 63.06 60.65 59.08 58.48 58.21 57.06 55.94 56.66 56.36 55.43 55.52 56.92 57.07 57.90 57.37 57.35 57.46 57.88 58.48 60.02 61.02 61.33 60.75 60.40 59.97 59.74
60.25 61.26 61.51 63.19 63.43 62.59 63.23 62.59 63.11 61.30 61.39 62.65 64.20 64.99 64.47 64.95 64.31 63.37 60.69 58.64 59.16 58.74 57.19 56.25 56.43 57.30 56.27 57.12 56.15 56.67 57.75 57.24 57.15 57.10 57.26 57.05 57.99 59.35 60.30 61.17 60.78 60.02 59.76
60.06 59.63 61.14 62.99 62.71 61.84 63.06 62.99 63.76 61.62 61.41 63.29 64.04 64.36 64.37 64.71 64.29 63.06 62.14 59.69 60.64 59.29 58.13 57.57 57.28 57.63 55.60 55.19 54.79 55.13 55.63 57.08 57.10 56.75 57.02 57.05 56.64 57.36 58.88 60.37 60.84 60.67 59.78
59.59 59.45 59.92 61.11 61.39 61.27 60.98 62.86 62.89 63.13 62.59 63.36 63.48 64.04 64.05 63.66 62.89 62.64 62.51 61.50 61.53 59.60 59.70 58.65 58.08 57.50 54.82 53.87 54.34 53.57 53.67 55.00 56.58 57.08 56.28 56.22 55.99 56.08 55.88 58.99 59.54 59.70 60.25
59.29 59.63 59.19 59.72 59.46 60.35 59.03 60.88 61.76 63.23 63.49 62.91 62.49 63.40 63.45 63.22 62.47 61.64 62.14 61.36 61.92 60.01 60.86 59.51 58.09 56.63 54.86 53.77 55.97 53.74 52.06 53.07 54.94 55.40 55.82 56.38 55.77 55.68 55.49 55.55 56.96 57.15 58.84
58.70 58.57 58.99 59.92 60.37 58.65 57.23 57.13 57.11 59.34 62.33 62.80 62.03 62.26 62.56 62.23 62.18 61.39 61.69 61.23 62.10 60.61 60.44 59.46 57.84 55.06 52.92 52.46 50.63 49.99 50.50 51.42 52.48 53.30 54.69 55.74 55.42 55.23 54.98 54.93 55.25 55.31 56.43
57.64 57.57 58.73 59.40 59.65 58.09 57.83 58.45 58.35 57.61 58.81 63.05 62.45 62.31 62.07 61.79 61.29 60.11 60.46 60.13 61.14 60.70 59.38 58.32 56.72 54.92 53.33 54.03 51.04 49.84 46.60 48.75 49.63 51.05 52.09 53.58 54.09 55.30 55.18 54.83 55.00 54.71 54.62
56.05 56.37 58.10 59.18 58.79 57.55 59.70 59.16 58.01 58.05 58.86 59.49 61.73 61.08 61.53 61.37 60.92 59.18 59.40 58.89 60.58 60.17 58.36 56.79 56.34 54.98 53.38 53.43 53.66 51.14 47.45 46.20 46.60 48.76 49.80 50.16 52.08 53.12 53.75 55.00 55.59 55.37 55.01
55.47 56.87 58.42 59.03 59.15 59.42 59.32 58.38 58.09 57.34 56.75 59.00 59.00 61.09 60.77 61.09 60.66 58.43 59.29 58.74 58.78 59.93 58.24 57.14 57.15 55.80 54.11 52.32 52.75 54.09 52.74 52.21 46.65 44.34 47.73 48.82 49.72 51.35 52.95 53.14 54.01 54.93 55.59
56.35 56.77 58.80 58.64 58.74 58.97 58.77 58.68 57.63 57.59 58.14 59.43 60.20 59.96 60.11 60.19 59.97 58.41 59.15 58.46 58.09 58.42 57.94 57.40 57.26 56.86 55.12 54.25 52.64 51.96 50.76 50.41 50.30 47.89 44.81 45.78 48.00 49.89 51.14 53.12 54.11 53.40 54.64
56.23 56.62 58.09 58.54 58.18 58.08 58.25 58.53 57.86 57.59 57.65 57.57 59.35 58.37 59.06 59.19 58.72 58.19 58.73 58.25 58.21 58.40 58.01 57.73 57.23 56.95 56.62 55.32 54.22 53.47 50.97 49.66 48.78 48.12 46.68 46.72 46.29 48.04 50.75 51.61 52.96 53.93 53.21
MSLP
1009.08 1008.94 1009.05 1009.35 1009.45 1009.52 1010.02 1010.51 1010.88 1010.93 1011.44 1012.07 1012.40 1012.69 1012.97 1013.12 1013.34 1013.70 1013.97 1014.18 1014.56 1014.77 1015.32 1015.83 1016.20 1016.60 1016.83 1016.95 1017.32 1017.56 1017.74 1017.96 1018.07 1018.34 1018.65 1018.86 1019.11 1019.45 1019.78 1019.81 1019.89 1019.98 1020.08
1008.57 1009.02 1009.18 1009.57 1009.72 1009.62 1010.03 1010.45 1010.85 1011.14 1011.40 1011.58 1012.51 1013.06 1013.33 1013.59 1013.86 1014.25 1014.50 1014.69 1014.71 1015.17 1015.66 1016.09 1016.48 1016.82 1017.07 1017.32 1017.71 1017.95 1018.09 1018.42 1018.62 1018.99 1019.09 1019.47 1019.73 1020.13 1020.16 1020.35 1020.46 1020.31 1020.51
1008.29 1008.81 1009.15 1009.44 1009.76 1009.99 1010.20 1010.65 1011.03 1011.41 1011.58 1011.77 1012.70 1012.81 1013.49 1013.88 1014.23 1014.51 1014.75 1015.04 1015.23 1015.54 1015.85 1016.36 1016.62 1017.09 1017.23 1017.65 1017.98 1018.31 1018.57 1018.77 1019.13 1019.58 1019.85 1020.10 1020.16 1020.66 1020.55 1020.90 1020.92 1020.88 1021.22
1008.07 1008.51 1008.76 1009.18 1009.69 1009.96 1010.20 1010.57 1011.12 1011.35 1011.79 1011.88 1012.45 1013.30 1013.30 1014.15 1014.72 1014.90 1015.20 1015.41 1015.68 1015.97 1016.12 1016.47 1016.85 1017.14 1017.52 1017.85 1018.25 1018.45 1018.62 1019.19 1019.48 1019.87 1020.16 1020.61 1020.46 1020.90 1021.29 1021.53 1021.53 1021.49 1021.75
1007.74 1008.12 1008.54 1008.84 1009.14 1009.54 1009.87 1010.46 1011.05 1011.22 1011.74 1011.92 1012.00 1012.88 1013.62 1013.10 1015.18 1015.33 1015.51 1015.73 1015.80 1016.17 1016.44 1016.51 1017.09 1017.33 1017.50 1017.92 1018.53 1018.85 1018.96 1019.39 1019.89 1020.19 1020.59 1020.81 1021.22 1021.35 1021.78 1021.85 1021.96 1022.20 1022.30
1007.48 1007.64 1008.27 1008.67 1008.89 1009.16 1009.46 1009.91 1010.49 1011.12 1011.50 1011.30 1011.96 1012.40 1013.06 1013.42 1014.67 1015.88 1015.86 1015.90 1015.91 1016.21 1016.61 1016.72 1017.42 1017.52 1017.58 1018.08 1018.66 1019.11 1019.27 1019.60 1020.30 1020.51 1021.09 1021.10 1021.43 1021.98 1022.07 1022.41 1022.58 1022.72 1022.79
1007.66 1007.85 1008.28 1008.58 1008.92 1009.17 1009.15 1009.55 1009.90 1010.50 1011.07 1011.44 1012.55 1012.77 1013.07 1013.33 1015.12 1016.19 1016.32 1016.20 1016.10 1016.23 1016.79 1017.05 1017.75 1017.88 1017.65 1018.16 1018.70 1019.27 1019.47 1019.93 1020.51 1021.11 1021.43 1021.72 1021.98 1022.21 1022.43 1022.93 1023.20 1023.18 1023.35
1007.72 1008.29 1008.46 1008.71 1009.03 1009.16 1009.30 1009.54 1009.62 1010.02 1010.65 1011.31 1012.29 1013.33 1012.86 1013.06 1015.10 1015.94 1016.50 1016.59 1016.40 1016.47 1016.85 1017.59 1018.05 1018.00 1017.63 1018.33 1019.07 1019.50 1019.61 1020.05 1020.61 1021.47 1021.86 1022.06 1022.22 1022.45 1022.84 1023.36 1023.56 1023.70 1023.90
1007.92 1008.43 1008.62 1008.85 1009.10 1009.34 1009.46 1009.67 1009.76 1009.84 1010.29 1010.99 1012.02 1013.25 1013.49 1013.56 1015.22 1014.98 1015.76 1016.58 1016.73 1016.97 1017.18 1017.75 1018.08 1018.30 1017.94 1018.79 1019.16 1019.50 1019.76 1020.28 1020.99 1021.55 1021.84 1022.19 1022.55 1022.77 1023.10 1023.53 1023.79 1024.20 1024.37
1007.72 1008.23 1008.46 1008.65 1009.02 1009.46 1009.62 1009.69 1009.86 1009.79 1010.03 1010.77 1012.18 1012.40 1013.79 1013.53 1014.60 1015.16 1015.56 1016.38 1016.97 1017.28 1017.38 1017.96 1018.02 1018.20 1018.50 1018.93 1019.18 1019.57 1019.93 1020.46 1021.17 1021.57 1022.22 1022.61 1022.59 1022.74 1023.17 1023.63 1024.14 1024.49 1024.60
1007.76 1007.95 1008.03 1008.42 1008.78 1009.15 1009.52 1009.77 1010.05 1010.20 1010.29 1010.69 1011.95 1012.47 1012.62 1013.87 1014.38 1015.22 1015.98 1016.66 1017.00 1017.41 1017.59 1017.69 1018.16 1018.29 1018.32 1018.85 1019.40 1019.82 1020.09 1020.74 1021.24 1021.95 1022.43 1022.58 1022.72 1022.98 1023.36 1024.08 1024.50 1024.59 1024.70
1007.41 1007.68 1007.68 1008.08 1008.53 1008.72 1009.19 1009.33 1009.73 1010.08 1010.63 1011.14 1011.59 1012.08 1013.38 1013.58 1014.12 1014.94 1016.07 1016.72 1017.35 1017.66 1017.55 1018.12 1018.17 1018.38 1018.84 1019.12 1019.50 1019.59 1020.16 1020.92 1021.42 1021.97 1022.37 1022.76 1022.99 1023.33 1023.91 1024.18 1024.69 1025.09 1024.90
1006.64 1007.31 1007.43 1007.89 1008.31 1008.63 1009.11 1009.32 1009.31 1009.85 1009.97 1010.55 1011.27 1012.70 1013.36 1013.95 1014.17 1015.08 1016.08 1016.85 1017.58 1017.50 1017.78 1018.36 1018.60 1018.68 1018.84 1019.27 1019.04 1019.54 1020.31 1020.96 1021.59 1022.10 1022.47 1022.98 1023.38 1023.71 1024.19 1024.48 1024.63 1024.93 1025.56
1006.27 1007.01 1007.28 1007.68 1008.02 1008.45 1008.76 1009.02 1009.13 1009.45 1009.76 1009.69 1010.82 1011.41 1013.37 1013.78 1013.95 1015.02 1015.66 1016.82 1017.25 1017.35 1017.96 1018.63 1018.83 1018.88 1019.04 1018.91 1018.98 1019.53 1020.21 1020.99 1021.69 1022.13 1022.78 1023.27 1023.60 1023.91 1024.31 1024.61 1024.79 1025.10 1025.47
1006.21 1006.82 1007.24 1007.55 1007.89 1008.19 1008.49 1008.85 1008.95 1008.81 1009.20 1009.43 1010.44 1010.70 1012.22 1013.02 1013.64 1014.85 1015.90 1016.51 1017.00 1017.46 1018.15 1018.47 1019.07 1018.77 1019.09 1018.88 1018.98 1019.50 1020.34 1021.09 1021.66 1021.99 1022.77 1023.42 1023.86 1024.10 1024.41 1024.63 1024.82 1025.09 1025.63
1005.84 1006.62 1007.00 1007.31 1007.67 1008.06 1008.41 1008.73 1008.76 1008.30 1008.91 1007.75 1009.30 1010.43 1011.59 1012.17 1013.28 1014.57 1015.45 1016.14 1016.96 1017.31 1017.92 1018.38 1018.88 1018.89 1019.14 1019.07 1019.23 1019.62 1020.39 1021.31 1021.64 1022.23 1022.82 1023.26 1023.78 1024.28 1024.36 1024.46 1024.72 1025.10 1025.58
1005.17 1006.11 1006.71 1007.02 1007.38 1007.83 1008.00 1008.30 1008.58 1008.65 1009.01 1008.93 1009.08 1010.44 1011.59 1012.42 1012.94 1014.08 1015.09 1016.03 1016.42 1017.00 1017.73 1018.43 1018.74 1018.98 1019.16 1019.15 1019.51 1019.86 1020.54 1021.18 1021.80 1022.31 1022.64 1023.20 1023.68 1024.06 1024.27 1024.30 1024.56 1024.90 1025.49
1004.88 1005.81 1006.41 1006.97 1007.31 1007.69 1007.72 1007.97 1008.35 1008.98 1009.47 1009.36 1009.82 1010.88 1011.50 1012.02 1012.95 1013.89 1014.71 1015.56 1015.81 1016.84 1017.46 1018.24 1018.60 1018.93 1019.12 1019.37 1019.70 1019.96 1020.68 1021.02 1021.64 1022.16 1022.56 1023.03 1023.49 1023.73 1024.08 1024.18 1024.47 1024.75 1025.30
1004.61 1005.47 1006.33 1007.07 1007.42 1007.71 1007.88 1007.98 1008.26 1008.74 1009.54 1009.77 1010.28 1010.80 1011.44 1011.99 1012.96 1013.48 1014.23 1014.84 1015.52 1016.27 1017.02 1017.77 1018.45 1018.47 1019.10 1019.51 1019.95 1020.26 1020.63 1021.13 1021.47 1022.04 1022.33 1022.87 1023.16 1023.49 1023.79 1023.95 1024.29 1024.47 1024.95
1004.40 1005.22 1006.21 1006.98 1007.62 1007.81 1008.01 1008.28 1008.51 1008.81 1009.23 1009.60 1010.20 1010.85 1011.17 1011.65 1012.31 1012.90 1013.91 1014.57 1015.19 1015.92 1016.64 1017.37 1017.94 1018.24 1018.76 1019.34 1019.81 1020.48 1020.86 1020.82 1021.34 1021.76 1022.12 1022.53 1022.90 1023.12 1023.42 1023.62 1023.84 1024.14 1024.45
1004.30 1005.18 1006.15 1006.92 1007.58 1007.99 1008.30 1008.54 1008.76 1008.88 1009.25 1009.84 1010.21 1010.46 1010.95 1011.45 1011.88 1012.75 1013.42 1014.26 1014.74 1015.58 1016.13 1016.84 1017.53 1018.04 1018.86 1019.25 1020.17 1020.96 1021.20 1021.14 1021.21 1021.47 1021.88 1022.11 1022.51 1022.81 1023.12 1023.30 1023.46 1023.79 1024.10
1004.30 1004.88 1005.94 1006.75 1007.21 1007.81 1008.25 1008.37 1008.54 1008.84 1009.14 1009.39 1009.83 1010.23 1010.53 1011.05 1011.75 1012.51 1012.92 1013.75 1014.49 1015.29 1015.93 1016.50 1016.97 1017.89 1018.56 1019.06 1020.00 1020.84 1021.67 1021.85 1021.57 1021.48 1021.54 1021.97 1022.18 1022.42 1022.64 1022.79 1022.99 1023.30 1023.59
1004.18 1004.60 1005.60 1006.40 1006.84 1007.65 1007.85 1008.11 1008.41 1008.75 1009.00 1009.32 1009.10 1009.63 1010.19 1010.58 1011.47 1012.04 1012.46 1012.98 1013.89 1014.77 1015.54 1015.99 1016.66 1017.17 1018.27 1019.07 1019.15 1019.82 1021.34 1021.58 1021.81 1021.66 1021.63 1021.63 1021.86 1022.06 1022.14 1022.23 1022.43 1022.76 1022.98
1003.67 1004.34 1005.27 1006.04 1006.44 1007.13 1007.67 1008.05 1008.34 1008.14 1008.18 1008.19 1008.47 1008.32 1009.61 1010.09 1010.93 1011.88 1012.13 1012.53 1013.44 1014.55 1015.49 1015.87 1016.39 1016.89 1017.70 1018.84 1019.30 1019.47 1019.97 1020.53 1021.45 1022.13 1021.89 1021.73 1021.74 1021.90 1021.91 1021.84 1021.79 1021.87 1021.98
1003.15 1003.82 1004.81 1005.73 1006.30 1006.76 1007.33 1007.56 1007.61 1007.58 1007.53 1007.55 1007.89 1008.34 1008.54 1009.92 1010.76 1011.54 1012.05 1012.62 1013.47 1014.30 1015.01 1015.80 1016.18 1016.94 1017.60 1018.36 1019.17 1019.62 1020.19 1020.48 1020.86 1021.32 1022.04 1021.85 1021.89 1021.50 1021.42 1021.26 1021.10 1021.32 1021.25
1002.91 1003.35 1004.35 1005.34 1005.95 1006.37 1007.20 1007.51 1007.63 1007.61 1007.53 1007.28 1007.29 1008.09 1008.94 1009.83 1010.93 1011.58 1012.16 1012.85 1013.65 1014.47 1014.86 1015.40 1016.22 1016.92 1017.78 1018.66 1018.74 1018.97 1019.63 1020.23 1020.66 1021.07 1021.57 1021.56 1021.33 1021.08 1020.73 1020.64 1020.56 1020.40 1020.32
Wind_Speed
4 8 13 14 14 15 14 13 11 15 16 16 17 18 19 21 21 21 22 23 22 22 23 22 21 21 22 24 23 21 21 20 22 21 20 22 23 23 22 20 19 16 22
12 8 13 13 13 15 15 14 15 15 16 20 18 18 18 19 21 21 21 21 23 22 23 22 22 22 23 24 21 21 21 21 22 21 22 22 21 21 22 19 17 17 22
13 11 12 14 15 14 14 13 14 14 18 19 18 19 18 19 19 20 20 20 21 21 23 22 22 22 24 22 21 21 21 22 21 20 19 11 13 20 21 19 20 21 20
13 12 13 16 15 15 14 15 15 18 17 20 21 18 21 18 16 18 18 19 20 19 22 22 22 23 22 20 20 21 21 17 21 18 11 11 13 21 19 18 19 20 19
12 11 12 18 19 19 17 16 16 18 18 19 24 23 19 25 14 16 17 18 20 20 21 23 22 22 19 17 14 15 15 13 18 16 11 10 10 16 18 19 18 18 17
8 7 14 15 18 20 20 20 20 19 20 24 22 24 24 23 17 14 16 18 21 21 21 22 20 17 16 15 13 11 10 11 14 12 11 14 11 18 20 20 18 17 17
7 7 10 12 12 16 21 22 21 20 21 22 19 22 22 22 15 13 16 17 20 22 19 20 18 14 16 14 13 11 9 9 13 12 11 8 12 18 19 18 18 18 18
9 8 7 9 9 11 14 19 22 23 24 24 25 20 24 28 22 20 16 15 19 21 22 18 14 15 16 14 12 9 8 20 15 12 10 7 16 19 19 18 18 17 18
8 7 5 6 5 7 5 5 14 21 22 24 19 17 23 29 26 24 21 17 19 20 21 18 14 12 14 12 11 8 12 20 14 10 10 6 17 19 19 18 17 16 17
7 5 5 6 4 4 3 5 6 11 14 21 25 23 23 28 25 19 20 21 20 20 19 17 14 13 13 11 10 11 19 20 13 11 6 7 17 19 18 17 17 16 16
6 7 7 7 7 6 4 4 7 10 11 22 20 13 22 12 15 18 17 21 21 20 18 17 14 12 11 10 9 10 10 9 11 8 4 14 17 18 18 17 15 16 16
8 7 7 7 6 5 3 4 5 7 8 9 11 15 5 14 14 16 17 21 19 19 18 15 14 12 7 4 3 8 8 10 9 8 6 13 16 18 17 17 15 14 15
11 6 7 7 6 5 5 3 3 3 6 8 13 16 11 9 11 11 9 9 9 14 8 9 8 4 5 4 3 6 8 9 7 7 9 13 16 17 17 16 16 16 13
13 9 7 7 7 6 4 4 6 4 4 7 8 18 19 9 10 11 9 9 9 6 8 5 4 4 6 6 5 5 11 9 7 6 8 12 15 17 17 17 16 15 14
8 7 7 7 6 6 5 4 4 3 6 7 11 19 16 12 11 11 10 9 8 8 7 7 5 6 5 5 4 6 11 10 11 7 5 12 12 15 17 16 15 14 13
11 9 8 7 7 6 5 6 4 3 3 6 14 14 17 14 13 12 11 10 9 9 8 7 5 4 4 5 4 6 13 10 11 11 7 8 12 13 14 16 15 14 14
8 10 8 6 7 6 8 7 5 5 5 4 9 15 14 14 15 14 11 10 9 9 11 5 5 4 4 4 5 5 9 11 10 11 9 6 7 11 12 14 14 14 13
13 10 8 5 6 5 4 5 7 8 6 8 5 8 11 14 15 13 12 11 10 9 9 6 5 6 5 5 3 3 6 9 11 11 9 8 7 6 9 12 13 13 13
13 11 11 6 5 5 4 4 5 10 8 9 9 11 12 14 15 12 11 11 12 12 9 7 4 7 7 4 5 4 3 7 10 9 11 10 10 8 6 11 12 12 13
13 12 10 6 5 6 4 4 3 5 6 7 9 10 10 12 14 9 9 11 10 11 9 5 9 6 6 6 6 4 3 4 7 8 10 8 9 9 9 9 8 8 14
13 13 9 8 7 6 2 2 2 3 7 9 8 10 12 11 13 11 10 9 10 11 10 10 7 10 3 4 5 3 2 2 5 4 7 8 10 9 10 8 6 6 8
13 12 11 9 8 5 4 3 3 4 3 7 10 12 14 15 14 10 13 11 12 9 10 9 9 4 3 4 5 4 2 3 2 3 3 5 9 7 9 9 10 9 8
11 11 12 10 9 6 5 3 2 1 2 6 9 12 13 17 15 11 11 10 13 9 8 5 8 7 5 2 11 5 3 4 1 2 4 3 5 4 6 8 10 11 11
11 10 12 11 10 7 8 7 6 8 8 8 11 11 16 16 16 10 9 11 12 11 9 6 5 4 5 5 2 3 1 4 4 1 2 4 4 5 6 5 8 10 12
13 12 12 11 10 9 7 5 3 3 2 6 8 10 14 16 16 13 8 10 9 9 12 11 6 6 4 4 2 3 1 1 1 3 3 3 1 5 5 7 7 6 10
11 11 10 13 11 10 8 7 6 5 5 5 9 11 9 13 12 14 9 9 6 6 8 8 5 7 4 2 3 4 4 4 4 2 2 3 5 5 7 6 8 9 8
Wind_Direction
129 145 140 139 134 125 120 111 106 114 108 100 105 106 109 109 110 112 115 116 118 117 118 116 114 111 108 106 104 103 101 97 94 96 98 102 102 98 92 86 85 86 87
131 150 143 140 138 131 131 129 131 128 122 123 118 113 113 113 113 115 117 118 117 120 122 120 122 118 114 110 108 105 102 96 93 94 91 94 94 95 93 89 89 85 83
140 146 147 145 143 138 138 142 137 134 133 122 123 122 118 115 117 118 119 121 122 125 125 124 122 119 118 118 118 115 110 107 100 91 89 93 95 93 87 87 89 89 90
139 156 152 148 148 147 151 148 146 145 145 136 130 123 118 111 120 124 129 127 128 128 129 128 124 124 123 123 125 125 122 117 111 107 99 96 97 99 96 97 96 94 95
155 166 162 158 158 161 162 158 159 158 158 146 141 137 132 124 131 136 137 137 133 136 135 130 130 132 127 124 118 126 124 104 111 104 94 98 97 103 107 103 98 98 101
120 132 157 167 166 169 168 166 170 164 163 151 154 143 140 133 137 155 145 144 141 135 137 130 139 139 125 113 108 103 91 81 101 96 87 86 93 105 104 99 99 97 98
120 120 150 158 172 180 177 173 177 172 172 166 160 151 145 122 137 167 156 151 143 138 133 132 152 142 122 111 107 92 70 91 105 97 98 94 112 110 105 105 103 101 103
115 120 126 158 174 194 192 184 182 182 177 175 152 165 144 135 161 178 163 156 143 136 136 146 163 140 122 116 107 98 66 120 105 106 104 103 112 110 111 110 108 109 111
90 102 133 144 175 224 215 183 204 193 190 181 147 175 167 151 179 163 157 153 142 141 143 152 155 135 115 122 112 97 89 110 110 114 111 108 120 119 115 115 110 112 112
121 131 135 144 129 107 182 188 166 206 184 169 169 175 172 155 167 163 144 145 146 146 147 152 149 136 134 126 113 76 112 115 114 105 101 130 128 122 121 118 121 122 118
156 173 177 163 162 173 166 185 201 210 170 161 159 120 164 160 157 152 147 148 150 152 150 146 146 139 129 127 104 91 98 114 114 120 122 132 132 129 125 128 130 128 127
172 181 178 171 179 168 140 219 189 189 198 188 185 134 216 163 167 151 149 145 148 152 143 147 141 135 132 125 141 97 110 117 114 128 130 140 138 133 136 135 135 137 135
177 168 180 161 154 150 129 175 133 181 194 171 169 156 209 168 154 142 143 144 152 142 137 144 143 147 141 164 130 101 120 115 124 131 138 143 143 144 143 145 144 141 141
150 161 164 156 153 159 159 172 178 177 166 156 175 169 173 178 147 146 145 152 152 145 136 149 164 165 174 146 151 127 130 129 136 129 138 145 150 152 153 151 147 145 149
139 146 158 151 159 169 159 189 193 149 174 188 181 158 163 162 152 149 153 152 151 142 154 153 189 165 175 148 176 121 134 131 140 135 137 150 154 160 161 157 153 152 158
134 152 161 159 175 177 173 181 192 129 71 242 161 155 158 159 156 157 158 155 157 153 157 164 185 168 179 141 182 122 137 139 139 142 146 152 159 170 168 164 162 164 171
143 143 152 162 156 188 194 181 164 135 129 90 124 154 157 158 153 154 156 162 158 158 159 165 180 163 160 139 161 120 142 146 145 154 150 151 163 172 177 173 175 177 181
129 134 122 127 149 163 165 163 153 153 156 137 136 159 169 150 154 159 160 166 149 161 168 175 180 159 146 143 147 157 138 150 152 156 158 161 174 174 187 181 182 185 193
133 131 123 133 132 147 109 122 129 148 159 150 161 167 174 156 160 159 161 164 157 163 169 175 182 155 150 143 154 150 166 135 152 160 167 176 180 179 183 191 187 188 199
127 125 126 136 161 131 114 95 92 140 151 166 164 173 173 157 158 141 164 163 158 167 172 167 166 149 152 153 157 144 181 143 159 167 176 180 189 187 188 190 191 197 200
129 129 138 151 155 135 122 135 156 162 165 170 180 170 171 163 159 160 169 167 164 172 175 164 160 149 143 147 102 69 21 174 183 175 167 181 190 194 192 191 190 197 207
144 143 141 167 157 159 167 168 162 154 180 187 182 177 173 168 164 165 167 166 167 157 149 156 159 125 147 145 144 111 104 329 328 209 188 170 192 188 195 193 197 197 201
150 147 155 173 159 168 167 139 107 95 124 207 195 179 180 172 169 163 162 146 156 142 152 139 151 137 139 121 155 139 130 209 143 297 231 221 203 192 194 190 197 200 202
158 148 157 158 163 163 156 173 191 204 198 200 215 183 174 173 170 166 158 140 142 151 168 155 146 136 122 144 96 100 86 140 168 263 309 247 224 222 212 219 199 201 205
155 149 158 158 164 158 180 184 182 153 162 195 199 181 170 163 170 166 149 136 131 148 155 161 145 125 123 113 159 144 130 84 112 129 206 268 277 235 227 224 219 218 219
156 146 151 162 170 156 171 179 156 148 140 131 161 150 160 169 161 168 143 129 127 138 140 134 115 101 107 209 190 155 164 168 202 159 163 215 204 242 225 227 226 228 221